• In Belarus
  • List of Countries
  • For 7 days
  • Water Temperature
  • Weather Map
  • Weather Widgets
  • user-avatar
    Login

    Hourly Weather Santiago del Estero

    Today, 25 August, Sunday

    Time Temperature Precipitation Wind Pressure Humidity
    00:00 +18°C° 0 mm 3 mps 743 mmHg 51%
    01:00 +17°C° 0 mm 2 mps 743 mmHg 53%
    02:00 +17°C° 0 mm 2 mps 743 mmHg 57%
    03:00 +17°C° 0 mm 2 mps 742 mmHg 59%
    04:00 +16°C° 0 mm 2 mps 742 mmHg 60%
    05:00 +16°C° 0 mm 2 mps 741 mmHg 62%
    06:00 +18°C° 0 mm 1 mps 742 mmHg 59%
    07:00 +18°C° 0 mm 1 mps 742 mmHg 57%
    08:00 +18°C° 0 mm 0 mps 743 mmHg 51%
    09:00 +22°C° 0 mm 1 mps 742 mmHg 46%
    10:00 +24°C° 0 mm 2 mps 742 mmHg 41%
    11:00 +26°C° 0 mm 3 mps 742 mmHg 35%
    12:00 +28°C° 0 mm 3 mps 741 mmHg 34%
    13:00 +29°C° 0 mm 3 mps 740 mmHg 32%
    14:00 +30°C° 0 mm 3 mps 740 mmHg 31%
    15:00 +31°C° 0 mm 2 mps 739 mmHg 30%
    16:00 +31°C° 0 mm 2 mps 739 mmHg 30%
    17:00 +31°C° 0 mm 1 mps 739 mmHg 30%
    18:00 +29°C° 0 mm 2 mps 740 mmHg 34%
    19:00 +27°C° 0 mm 3 mps 740 mmHg 38%
    20:00 +25°C° 0 mm 4 mps 741 mmHg 43%
    21:00 +23°C° 0 mm 4 mps 741 mmHg 49%
    22:00 +22°C° 0 mm 4 mps 742 mmHg 55%
    23:00 +20°C° 0 mm 4 mps 742 mmHg 61%

    Tomorrow, 26 August, Monday

    Time Temperature Precipitation Wind Pressure Humidity
    00:00 +19°C° 0 mm 3 mps 742 mmHg 67%
    01:00 +18°C° 0 mm 3 mps 742 mmHg 73%
    02:00 +17°C° 0 mm 2 mps 742 mmHg 79%
    03:00 +17°C° 0 mm 2 mps 742 mmHg 83%
    04:00 +16°C° 0 mm 2 mps 742 mmHg 87%
    05:00 +16°C° 0 mm 2 mps 742 mmHg 90%
    06:00 +16°C° 0 mm 2 mps 742 mmHg 88%
    07:00 +17°C° 0 mm 2 mps 742 mmHg 86%
    08:00 +18°C° 0 mm 3 mps 743 mmHg 84%
    09:00 +20°C° 0 mm 2 mps 743 mmHg 74%
    10:00 +24°C° 0 mm 2 mps 743 mmHg 64%
    11:00 +26°C° 0 mm 1 mps 743 mmHg 54%
    12:00 +28°C° 0 mm 1 mps 742 mmHg 48%
    13:00 +30°C° 0 mm 2 mps 741 mmHg 43%
    14:00 +31°C° 0 mm 2 mps 740 mmHg 38%
    15:00 +32°C° 0 mm 2 mps 740 mmHg 37%
    16:00 +33°C° 0 mm 3 mps 739 mmHg 35%
    17:00 +34°C° 0 mm 3 mps 739 mmHg 34%
    18:00 +30°C° 0 mm 2 mps 740 mmHg 40%
    19:00 +28°C° 0 mm 2 mps 740 mmHg 45%
    20:00 +26°C° 0 mm 1 mps 740 mmHg 51%
    21:00 +25°C° 0 mm 1 mps 741 mmHg 52%
    22:00 +25°C° 0 mm 2 mps 741 mmHg 53%
    23:00 +25°C° 0 mm 2 mps 742 mmHg 55%

    Day after tomorrow, 27 August, Tuesday

    Time Temperature Precipitation Wind Pressure Humidity
    00:00 +24°C° 0 mm 2 mps 742 mmHg 57%
    01:00 +24°C° 0 mm 2 mps 742 mmHg 59%
    02:00 +22°C° 0 mm 3 mps 742 mmHg 61%
    03:00 +22°C° 0 mm 3 mps 742 mmHg 65%
    04:00 +21°C° 0 mm 2 mps 742 mmHg 68%
    05:00 +21°C° 0 mm 2 mps 742 mmHg 72%
    06:00 +21°C° 0 mm 3 mps 743 mmHg 70%
    07:00 +22°C° 0 mm 3 mps 744 mmHg 68%
    08:00 +24°C° 0 mm 3 mps 744 mmHg 65%
    09:00 +26°C° 0 mm 3 mps 744 mmHg 58%
    10:00 +29°C° 0 mm 4 mps 745 mmHg 50%
    11:00 +32°C° 0 mm 4 mps 745 mmHg 42%
    12:00 +34°C° 0 mm 5 mps 744 mmHg 38%
    13:00 +35°C° 0 mm 5 mps 743 mmHg 34%
    14:00 +37°C° 0 mm 5 mps 742 mmHg 30%
    15:00 +37°C° 0 mm 5 mps 741 mmHg 29%
    16:00 +37°C° 0 mm 5 mps 741 mmHg 29%
    17:00 +37°C° 0 mm 5 mps 740 mmHg 28%
    18:00 +35°C° 0 mm 5 mps 741 mmHg 31%
    19:00 +33°C° 0 mm 4 mps 741 mmHg 34%
    20:00 +30°C° 0 mm 4 mps 741 mmHg 36%
    21:00 +29°C° 0 mm 4 mps 741 mmHg 38%
    22:00 +28°C° 0 mm 4 mps 741 mmHg 40%
    23:00 +28°C° 0 mm 5 mps 741 mmHg 42%

    28 August, Wednesday

    Time Temperature Precipitation Wind Pressure Humidity
    00:00 +27°C° 0 mm 5 mps 741 mmHg 44%
    01:00 +27°C° 0 mm 4 mps 741 mmHg 46%
    02:00 +26°C° 0 mm 4 mps 740 mmHg 49%
    03:00 +26°C° 0 mm 4 mps 740 mmHg 52%
    04:00 +25°C° 0 mm 4 mps 739 mmHg 54%
    05:00 +25°C° 0 mm 4 mps 739 mmHg 57%
    06:00 +26°C° 0 mm 5 mps 739 mmHg 56%
    07:00 +26°C° 0 mm 6 mps 739 mmHg 54%
    08:00 +27°C° 0 mm 7 mps 739 mmHg 53%
    09:00 +31°C° 0 mm 8 mps 739 mmHg 45%
    10:00 +34°C° 0 mm 9 mps 739 mmHg 37%
    11:00 +38°C° 0 mm 10 mps 739 mmHg 29%
    12:00 +39°C° 0 mm 10 mps 738 mmHg 27%
    13:00 +42°C° 0 mm 10 mps 737 mmHg 25%
    14:00 +43°C° 0 mm 9 mps 736 mmHg 23%
    15:00 +42°C° 0 mm 9 mps 735 mmHg 23%
    16:00 +41°C° 0 mm 8 mps 735 mmHg 23%
    17:00 +41°C° 0 mm 7 mps 735 mmHg 23%
    18:00 +39°C° 0 mm 6 mps 735 mmHg 25%
    19:00 +36°C° 0 mm 5 mps 735 mmHg 28%
    20:00 +34°C° 0 mm 5 mps 736 mmHg 30%
    21:00 +33°C° 0 mm 5 mps 736 mmHg 31%
    22:00 +33°C° 0 mm 5 mps 736 mmHg 31%
    23:00 +32°C° 0 mm 5 mps 736 mmHg 32%

    29 August, Thursday

    Time Temperature Precipitation Wind Pressure Humidity
    00:00 +30°C° 0 mm 5 mps 736 mmHg 33%
    01:00 +30°C° 0 mm 5 mps 735 mmHg 34%
    02:00 +29°C° 0 mm 5 mps 735 mmHg 35%
    03:00 +29°C° 0 mm 5 mps 735 mmHg 35%
    04:00 +28°C° 0 mm 5 mps 734 mmHg 36%
    05:00 +28°C° 0 mm 5 mps 734 mmHg 36%
    06:00 +29°C° 0 mm 6 mps 734 mmHg 35%
    07:00 +29°C° 0 mm 6 mps 735 mmHg 34%
    08:00 +30°C° 0 mm 7 mps 735 mmHg 34%
    09:00 +33°C° 0 mm 7 mps 735 mmHg 30%
    10:00 +36°C° 0 mm 7 mps 735 mmHg 26%
    11:00 +40°C° 0 mm 8 mps 734 mmHg 22%
    12:00 +41°C° 0 mm 7 mps 734 mmHg 20%
    13:00 +44°C° 0 mm 7 mps 733 mmHg 18%
    14:00 +45°C° 0 mm 7 mps 732 mmHg 16%
    15:00 +45°C° 0 mm 6 mps 732 mmHg 16%
    16:00 +45°C° 0 mm 5 mps 732 mmHg 16%
    17:00 +44°C° 0 mm 3 mps 732 mmHg 17%
    18:00 +40°C° 0 mm 3 mps 733 mmHg 20%
    19:00 +37°C° 0 mm 3 mps 734 mmHg 23%
    20:00 +34°C° 0 mm 3 mps 735 mmHg 26%
    21:00 +30°C° 0.1 mm 5 mps 736 mmHg 36%
    22:00 +27°C° 0.1 mm 8 mps 737 mmHg 46%
    23:00 +23°C° 0.1 mm 10 mps 739 mmHg 55%

    30 August, Friday

    Time Temperature Precipitation Wind Pressure Humidity
    00:00 +22°C° 0.1 mm 9 mps 739 mmHg 55%
    01:00 +19°C° 0.1 mm 9 mps 740 mmHg 54%
    02:00 +18°C° 0.1 mm 8 mps 741 mmHg 53%
    03:00 +17°C° 0 mm 7 mps 741 mmHg 54%
    04:00 +17°C° 0 mm 6 mps 741 mmHg 55%
    05:00 +16°C° 0 mm 6 mps 741 mmHg 56%
    06:00 +17°C° 0 mm 6 mps 742 mmHg 55%
    07:00 +17°C° 0 mm 6 mps 742 mmHg 53%
    08:00 +17°C° 0 mm 6 mps 743 mmHg 52%
    09:00 +19°C° 0 mm 6 mps 742 mmHg 49%
    10:00 +20°C° 0 mm 6 mps 742 mmHg 47%
    11:00 +21°C° 0 mm 5 mps 742 mmHg 44%
    12:00 +22°C° 0 mm 6 mps 741 mmHg 42%
    13:00 +24°C° 0 mm 6 mps 740 mmHg 39%
    14:00 +26°C° 0 mm 6 mps 740 mmHg 37%
    15:00 +24°C° 0 mm 6 mps 740 mmHg 38%
    16:00 +24°C° 0 mm 6 mps 739 mmHg 40%
    17:00 +23°C° 0 mm 6 mps 739 mmHg 41%
    18:00 +21°C° 0 mm 6 mps 740 mmHg 48%
    19:00 +19°C° 0 mm 5 mps 741 mmHg 55%
    20:00 +18°C° 0 mm 4 mps 741 mmHg 62%
    21:00 +17°C° 0 mm 4 mps 742 mmHg 67%
    22:00 +15°C° 0 mm 4 mps 742 mmHg 71%
    23:00 +14°C° 0 mm 4 mps 742 mmHg 76%
    Show more